Flag for Russia Weather past 2 weeks in Novorossiysk, Russia

Now
36 °F

Partly sunny.


Feels Like: 36 °F
Forecast: 35 / 54 °F
Wind: 1 mph from East

Location: Anapa / Vitiazevo

Current Time: Dec 28, 2014 at 5:30:34 PM

Latest Report: Dec 28, 2014 at 5:00 PM


Visibility: N/A

Pressure: 30.07 "Hg

Humidity: 75%

Dew point: 28 °F

Location of NovorossiyskLocation

Historic Weather in Novorossiysk — Graph

°F

Novorossiysk temperature yesterday

Maximum temperature yesterday: 55 °F (at 8:00 PM)
Minimum temperature yesterday: 39 °F (at 1:00 AM)
Average temperature yesterday: 47 °F

Past Weeks' High & Low Weather Summary

 TemperatureHumidityPressure
High57 °F (Dec 18, 2:00 PM)100% (Dec 14, 4:00 AM)30.36 "Hg (Dec 14, 4:00 AM)
Low30 °F (Dec 14, 8:30 AM)55% (Dec 18, 3:30 PM)29.62 "Hg (Dec 27, 8:00 PM)
Average45 °F85%30.06 "Hg
* Reported Dec 13 4:00 PM — Dec 28 4:30 PM, Novorossiysk, Weather by CustomWeather, © 2014

Note: Actual official high and low records may vary slightly from our data, if they occured in-between our weather recording intervals... More about our weather records

Advertising

Novorossiysk weather history for previous 24 hours

 ConditionsComfort  
Time TempWeatherWind HumidityBarometerVisibility
4:30 PM
Dec 28
37 °FBroken clouds.1 mph70%30.04 "HgN/A
4:00 PM37 °FScattered clouds.10 mph70%30.01 "HgN/A
3:30 PM39 °FSunny.10 mph65%30.04 "Hg10 mi
3:00 PM39 °FScattered clouds.13 mph65%30.01 "HgN/A
2:30 PM39 °FScattered clouds.15 mph70%30.01 "HgN/A
2:00 PM37 °FScattered clouds.17 mph75%30.01 "HgN/A
1:30 PM37 °FBroken clouds.20 mph81%29.98 "HgN/A
1:00 PM37 °FBroken clouds.20 mph75%29.98 "HgN/A
12:30 PM36 °FPartly sunny.22 mph81%29.98 "HgN/A
12:00 PM34 °FPartly sunny.41 mph81%29.98 "HgN/A
11:30 AM34 °FBroken clouds.26 mph81%29.95 "HgN/A
11:00 AM34 °FPartly sunny.31 mph75%29.95 "HgN/A
10:30 AM34 °FPartly sunny.29 mph87%29.92 "HgN/A
10:00 AM36 °FPartly sunny.26 mph81%29.86 "HgN/A
9:30 AM36 °FMostly cloudy.22 mph87%29.83 "HgN/A
9:00 AM36 °FOvercast.20 mph87%29.80 "HgN/A
8:30 AM39 °FSprinkles. Mostly cloudy.24 mph87%29.77 "HgN/A
8:00 AM41 °FSprinkles. Mostly cloudy.33 mph81%29.71 "HgN/A
7:30 AM41 °FSprinkles. Mostly cloudy.36 mph87%29.71 "Hg2 mi
7:00 AM45 °FMostly cloudy.31 mph76%29.68 "HgN/A
6:30 AM45 °FLight rain. Mostly cloudy.33 mph81%29.68 "Hg1 mi
6:00 AM46 °FMostly cloudy.31 mph71%29.65 "HgN/A
5:00 AM46 °FLight rain. Overcast.26 mph82%29.65 "Hg6 mi
4:00 AM46 °FSprinkles. Overcast.17 mph87%29.65 "Hg4 mi
3:00 AM46 °FSprinkles. Overcast.22 mph87%29.65 "HgN/A
2:00 AM48 °FLight rain. Fog.17 mph94%29.65 "Hg2 mi
1:00 AM50 °FLight rain. Fog.13 mph94%29.62 "Hg3 mi
12:00 AM52 °FLight rain. Fog.15 mph88%29.62 "Hg3 mi
11:00 PM
Dec 27
54 °FLight rain. Overcast.20 mph82%29.62 "HgN/A
10:00 PM55 °FClear.24 mph67%29.62 "Hg10 mi
9:00 PM55 °FClear.22 mph67%29.62 "Hg10 mi
8:00 PM55 °FClear.24 mph63%29.62 "Hg10 mi
7:00 PM54 °FClear.15 mph67%29.65 "Hg10 mi
6:30 PM54 °FClear.15 mph72%29.65 "Hg10 mi
6:00 PM54 °FLight rain. Overcast.15 mph77%29.65 "HgN/A
5:30 PM52 °FSunny.13 mph82%29.68 "Hg10 mi
5:00 PM52 °FLight rain. Overcast.13 mph82%29.68 "HgN/A
Weather by CustomWeather, © 2014

See weather overviewHow to use our weather pages